[[{"header":{"parameterUnit":"m.s-1","parameterCategory":1,"la1":30.2991,"la2":30.254,"lo1":-89.0895,"lo2":-89.0444,"dy":0.0017,"dx":0.0017,"nx":28,"ny":28,"refTime":"2025-11-24T03:00:00:Z","depth":0,"parameterNumber":2,"parameterNumberName":"U-component_of_WINDS"},"data":[0,0,0,0,0,0,0,0,0,0,0,0,0,0,0,0,0,0,0,0,0,0,0,0,0,0,0,0,0,0,0,0,0,0,0,0,0,0,0,0,0,0,0,0,0,0,0,0,0,0,0,0,0,0,0,0,0,0,-0.6597,-0.6597,0,-0.6611,-0.6611,-0.6611,-0.6626,-0.6626,-0.6626,-0.6627,-0.6641,-0.6641,-0.6641,0,0,0,0,0,0,0,0,0,0,0,0,0,-0.658,-0.658,-0.6597,-0.6597,-0.6597,-0.6611,-0.6611,-0.6611,-0.6626,-0.6626,-0.6626,-0.6627,-0.6641,-0.6641,-0.6641,0,0,0,0,0,0,0,0,0,0,0,0,0,-0.659,-0.658,-0.6597,-0.6606,-0.6607,-0.6611,-0.6611,-0.6611,-0.6626,-0.6626,-0.6626,-0.6627,-0.664,-0.6641,-0.6641,-0.6637,0,0,-0.6642,-0.6642,0,0,0,0,0,0,0,0,-0.6589,-0.659,-0.6604,-0.6605,-0.6606,-0.6617,-0.661,-0.662,-0.6626,-0.6619,-0.6627,-0.6627,-0.6632,-0.6633,-0.6635,-0.6637,-0.6638,-0.6642,-0.6642,-0.6642,-0.6642,0,0,0,0,0,0,0,-0.6588,-0.659,-0.6602,-0.6605,-0.6606,-0.6609,-0.661,-0.6612,-0.6624,-0.6619,-0.662,-0.6622,-0.6633,-0.6635,-0.6636,-0.6638,-0.6642,-0.6642,-0.6642,-0.6642,-0.6635,-0.6634,0,0,0,0,0,0,-0.6586,-0.6589,-0.6602,-0.6603,-0.6598,-0.6609,-0.6611,-0.6613,-0.6624,-0.6626,-0.6622,-0.6623,-0.6634,-0.6636,-0.6636,-0.6631,-0.6642,-0.6642,-0.6643,-0.6635,-0.6634,-0.6634,0,0,0,0,0,0,-0.6586,-0.6587,-0.6601,-0.6596,-0.6598,-0.6609,-0.6611,-0.6613,-0.6616,-0.6626,-0.6627,-0.6622,-0.6635,-0.6636,-0.6636,-0.6631,-0.6643,-0.6643,-0.6635,-0.6635,-0.6634,-0.662,0,0,0,0,0,0,-0.6586,-0.6587,-0.6587,-0.6596,-0.6598,-0.6601,-0.6611,-0.6613,-0.6616,-0.6617,-0.6626,-0.6628,-0.6635,-0.6635,-0.6636,-0.6632,-0.6643,-0.6636,-0.6635,-0.6634,-0.6621,-0.6619,-0.6617,0,0,0,0,0,-0.6585,-0.6582,-0.6586,-0.6588,-0.6598,-0.6601,-0.6602,-0.6611,-0.6616,-0.6614,-0.662,-0.6628,-0.6632,-0.6635,-0.6636,-0.6632,-0.6636,-0.6635,-0.6635,-0.6621,-0.6619,-0.6617,0,0,0,0,0,0,-0.6572,-0.6584,-0.6589,-0.6589,-0.6594,-0.6604,-0.6603,-0.6609,-0.6612,-0.6613,-0.6623,-0.6625,-0.6623,-0.6628,-0.6632,-0.6627,-0.6635,-0.6634,-0.6624,-0.6622,-0.662,-0.6619,-0.6643,0,0,0,0,0,-0.6569,-0.6572,-0.6582,-0.6581,-0.6583,-0.6592,-0.6594,-0.66,-0.6605,-0.6608,-0.6614,-0.6618,-0.662,-0.6622,-0.6624,-0.6621,-0.6622,-0.6618,-0.6616,-0.6615,-0.6614,-0.6611,-0.6608,-0.6631,-0.6631,-0.6631,0,0,-0.6564,-0.657,-0.6571,-0.6578,-0.6583,-0.6584,-0.6594,-0.6595,-0.6596,-0.6608,-0.6608,-0.6612,-0.6618,-0.6615,-0.6615,-0.6619,-0.6608,-0.6614,-0.6613,-0.6613,-0.6609,-0.6607,-0.6605,-0.6631,-0.6631,-0.6631,0,0,-0.6554,-0.656,-0.6559,-0.6563,-0.6569,-0.6575,-0.6575,-0.6583,-0.6586,-0.6586,-0.6594,-0.6595,-0.6599,-0.6602,-0.6604,-0.6592,-0.6598,-0.6593,-0.6583,-0.658,-0.6578,-0.6576,-0.6571,-0.6569,-0.6592,-0.6592,-0.6592,0,-0.6547,-0.655,-0.6558,-0.6558,-0.656,-0.657,-0.6569,-0.6572,-0.6579,-0.6579,-0.6584,-0.6587,-0.6592,-0.659,-0.6586,-0.6588,-0.6587,-0.6592,-0.6578,-0.6576,-0.6575,-0.6569,-0.6567,-0.6591,-0.6591,-0.6591,-0.6591,0,-0.6539,-0.654,-0.6539,-0.6544,-0.6546,-0.6546,-0.6553,-0.6554,-0.6559,-0.6563,-0.6562,-0.6567,-0.657,-0.657,-0.6576,-0.6568,-0.657,-0.6576,-0.6584,-0.6572,-0.6567,-0.6565,-0.659,-0.659,-0.659,-0.6591,0,0,-0.6524,-0.6532,-0.6531,-0.6533,-0.654,-0.6541,-0.6539,-0.6542,-0.6541,-0.6545,-0.6543,-0.6545,-0.655,-0.6552,-0.6557,-0.6554,-0.6542,-0.656,-0.656,-0.6556,-0.6532,-0.6527,-0.6525,-0.6546,-0.6546,-0.6546,-0.6531,0,-0.6515,-0.6514,-0.652,-0.6517,-0.6517,-0.6525,-0.6524,-0.6527,-0.6531,-0.6531,-0.6535,-0.6535,-0.6542,-0.6543,-0.654,-0.6544,-0.6538,-0.6546,-0.6544,-0.6543,-0.6542,-0.6522,-0.6518,-0.6504,-0.6529,-0.6529,-0.6529,0,-0.6505,-0.6507,-0.6503,-0.6508,-0.6508,-0.6507,-0.6508,-0.6509,-0.6511,-0.6514,-0.6515,-0.6521,-0.6518,-0.6526,-0.6522,-0.6527,-0.6526,-0.6527,-0.6527,-0.6527,-0.6535,-0.6521,-0.65,-0.6497,-0.6526,-0.6526,-0.6527,0,-0.6492,-0.6494,-0.6492,-0.6493,-0.6499,-0.6497,-0.6499,-0.6502,-0.6503,-0.6503,-0.6503,-0.6504,-0.6504,-0.6504,-0.6509,-0.6514,-0.6503,-0.6512,-0.6504,-0.6504,-0.6502,-0.6502,-0.648,-0.6503,-0.6503,-0.6503,-0.6503,0,-0.6482,-0.6479,-0.6486,-0.6485,-0.6481,-0.6488,-0.6484,-0.6487,-0.6489,-0.6487,-0.6494,-0.6492,-0.6499,-0.6497,-0.6501,-0.6496,-0.6496,-0.6497,-0.6498,-0.6496,-0.6496,-0.6496,-0.6497,-0.6502,-0.6502,-0.6502,-0.6502,0,-0.6468,-0.6473,-0.6471,-0.6475,-0.6476,-0.6473,-0.6476,-0.6474,-0.6477,-0.6475,-0.6475,-0.6479,-0.6477,-0.6482,-0.6481,-0.6483,-0.6476,-0.6479,-0.6475,-0.6475,-0.6467,-0.6468,-0.6444,-0.644,-0.6466,-0.6466,-0.6466,0,-0.6461,-0.6459,-0.6462,-0.6461,-0.6463,-0.6462,-0.6461,-0.6467,-0.6466,-0.6467,-0.6465,-0.6463,-0.6462,-0.6458,-0.6461,-0.646,-0.6462,-0.6454,-0.6462,-0.6459,-0.646,-0.646,-0.6459,-0.6452,-0.6452,-0.6451,-0.6451,0,-0.6447,-0.6449,-0.6449,-0.6448,-0.6447,-0.6447,-0.6448,-0.6446,-0.6452,-0.645,-0.6448,-0.6447,-0.6445,-0.6443,-0.6441,-0.6442,-0.6447,-0.6448,-0.6446,-0.6444,-0.6442,-0.6442,-0.6469,-0.6449,-0.6449,-0.6449,-0.6449,-0.645,-0.6436,-0.6434,-0.6435,-0.6433,-0.6434,-0.6433,-0.6431,-0.6433,-0.6431,-0.643,-0.6433,-0.6429,-0.6429,-0.6428,-0.6428,-0.6424,-0.6428,-0.6426,-0.6425,-0.6424,-0.6422,-0.6442,-0.6424,-0.6424,-0.6424,-0.6424,-0.6424,0,-0.6422,-0.6422,-0.6421,-0.642,-0.6418,-0.6423,-0.6422,-0.642,-0.6417,-0.6417,-0.6415,-0.6411,-0.6408,-0.641,-0.6407,-0.6403,-0.6405,-0.6402,-0.6402,-0.6402,-0.642,-0.6421,-0.64,-0.64,-0.64,-0.64,-0.64,-0.6401,-0.6414,-0.641,-0.6411,-0.6406,-0.6406,-0.6403,-0.6402,-0.6401,-0.64,-0.6395,-0.6393,-0.6394,-0.6393,-0.639,-0.6387,-0.6387,-0.6385,-0.6381,-0.6382,-0.6399,-0.6401,-0.6403,-0.6405,-0.6381,-0.6381,-0.6364,-0.6364,-0.6364]},{"header":{"parameterUnit":"m.s-1","parameterCategory":1,"la1":30.2991,"la2":30.254,"lo1":-89.0895,"lo2":-89.0444,"dy":0.0017,"dx":0.0017,"nx":28,"ny":28,"refTime":"2025-11-24T03:00:00:Z","depth":0,"parameterNumber":3,"parameterNumberName":"V-component_of_WINDS"},"data":[0,0,0,0,0,0,0,0,0,0,0,0,0,0,0,0,0,0,0,0,0,0,0,0,0,0,0,0,0,0,0,0,0,0,0,0,0,0,0,0,0,0,0,0,0,0,0,0,0,0,0,0,0,0,0,0,0,0,-4.1235,-4.1237,0,-4.1434,-4.1436,-4.1438,-4.1557,-4.1557,-4.1558,-4.1558,-4.1756,-4.176,-4.1765,0,0,0,0,0,0,0,0,0,0,0,0,0,-4.0953,-4.0957,-4.1234,-4.1237,-4.124,-4.1433,-4.1436,-4.1439,-4.1557,-4.1557,-4.1558,-4.1558,-4.1754,-4.176,-4.1766,0,0,0,0,0,0,0,0,0,0,0,0,0,-4.1105,-4.0959,-4.1234,-4.1322,-4.1332,-4.1433,-4.1436,-4.1439,-4.1556,-4.1557,-4.1558,-4.1559,-4.1752,-4.1759,-4.1766,-4.1794,0,0,-4.1788,-4.1791,0,0,0,0,0,0,0,0,-4.1096,-4.1115,-4.1306,-4.1316,-4.1327,-4.1471,-4.1409,-4.1558,-4.1556,-4.1471,-4.1558,-4.1559,-4.166,-4.1675,-4.171,-4.1803,-4.1812,-4.1789,-4.1793,-4.1796,-4.1798,0,0,0,0,0,0,0,-4.1086,-4.1108,-4.1313,-4.1309,-4.1322,-4.135,-4.1373,-4.1438,-4.1558,-4.1478,-4.1487,-4.151,-4.1666,-4.1703,-4.1716,-4.1814,-4.1789,-4.1795,-4.1799,-4.1802,-4.194,-4.194,0,0,0,0,0,0,-4.1062,-4.1098,-4.1307,-4.1319,-4.1212,-4.1354,-4.138,-4.1424,-4.1558,-4.1579,-4.1509,-4.1514,-4.169,-4.1707,-4.1723,-4.1764,-4.1796,-4.1803,-4.1807,-4.1941,-4.194,-4.194,0,0,0,0,0,0,-4.1055,-4.1079,-4.1299,-4.1211,-4.1241,-4.1358,-4.1407,-4.1428,-4.1465,-4.1581,-4.1602,-4.1525,-4.1692,-4.1713,-4.1776,-4.1773,-4.1806,-4.1812,-4.1942,-4.1941,-4.194,-4.1846,0,0,0,0,0,0,-4.1047,-4.1076,-4.1089,-4.1211,-4.1246,-4.1349,-4.1407,-4.1431,-4.1478,-4.1487,-4.1602,-4.1622,-4.1694,-4.1765,-4.1783,-4.1783,-4.1818,-4.1942,-4.1941,-4.194,-4.185,-4.1842,-4.1835,0,0,0,0,0,-4.1036,-4.1053,-4.1089,-4.1113,-4.1264,-4.1349,-4.1369,-4.1454,-4.1477,-4.149,-4.1565,-4.1618,-4.177,-4.177,-4.1792,-4.1794,-4.1943,-4.1942,-4.194,-4.1853,-4.1843,-4.1835,0,0,0,0,0,0,-4.0925,-4.107,-4.1112,-4.1169,-4.1246,-4.1369,-4.1388,-4.1441,-4.1511,-4.1516,-4.1617,-4.1642,-4.1695,-4.1751,-4.1748,-4.1828,-4.1863,-4.1865,-4.1789,-4.1781,-4.1773,-4.1758,-4.1824,0,0,0,0,0,-4.0908,-4.0966,-4.109,-4.1128,-4.1165,-4.1269,-4.1309,-4.1369,-4.1451,-4.1484,-4.1563,-4.164,-4.1706,-4.1747,-4.1813,-4.1859,-4.1885,-4.1871,-4.1864,-4.1857,-4.1858,-4.1886,-4.1881,-4.1935,-4.1935,-4.1935,0,0,-4.0871,-4.0958,-4.0988,-4.1108,-4.1174,-4.1231,-4.1296,-4.1353,-4.1396,-4.1492,-4.1557,-4.1618,-4.171,-4.1765,-4.1793,-4.1813,-4.1849,-4.1856,-4.1849,-4.1854,-4.1884,-4.1879,-4.1874,-4.1934,-4.1934,-4.1935,0,0,-4.0834,-4.0906,-4.0946,-4.1012,-4.1113,-4.1183,-4.1193,-4.1308,-4.1353,-4.142,-4.1494,-4.1546,-4.1656,-4.172,-4.1766,-4.1755,-4.1806,-4.1774,-4.1734,-4.1761,-4.1757,-4.1753,-4.1748,-4.1745,-4.1774,-4.1774,-4.1774,0,-4.0775,-4.0866,-4.0959,-4.1013,-4.1063,-4.1156,-4.1196,-4.1255,-4.1372,-4.1404,-4.1426,-4.1568,-4.1636,-4.1707,-4.1704,-4.1739,-4.1752,-4.176,-4.175,-4.1748,-4.1746,-4.1742,-4.174,-4.1769,-4.177,-4.177,-4.1771,0,-4.0789,-4.085,-4.087,-4.0983,-4.1035,-4.1082,-4.1181,-4.1223,-4.1278,-4.1345,-4.1412,-4.1498,-4.1584,-4.1606,-4.1659,-4.1684,-4.1693,-4.1731,-4.1768,-4.1735,-4.1733,-4.1732,-4.1763,-4.1764,-4.1766,-4.1767,0,0,-4.0684,-4.085,-4.0856,-4.0908,-4.1028,-4.1076,-4.1127,-4.1214,-4.1247,-4.1325,-4.1369,-4.1461,-4.1498,-4.1551,-4.1612,-4.1635,-4.162,-4.1671,-4.1675,-4.1658,-4.1652,-4.1622,-4.1619,-4.1656,-4.1656,-4.1656,-4.1644,0,-4.0664,-4.0761,-4.0848,-4.0913,-4.097,-4.106,-4.1105,-4.1182,-4.1246,-4.1303,-4.1374,-4.1438,-4.1482,-4.1514,-4.1542,-4.1616,-4.162,-4.1619,-4.1696,-4.1698,-4.1669,-4.1618,-4.1586,-4.157,-4.1644,-4.1644,-4.1644,0,-4.0652,-4.0728,-4.0799,-4.0914,-4.0942,-4.098,-4.1066,-4.1121,-4.121,-4.1255,-4.1315,-4.138,-4.1437,-4.1469,-4.1548,-4.1545,-4.1582,-4.1624,-4.1625,-4.1634,-4.1667,-4.1624,-4.1567,-4.1564,-4.1644,-4.1644,-4.1644,0,-4.0567,-4.0688,-4.0747,-4.0789,-4.0924,-4.0949,-4.1006,-4.1097,-4.1143,-4.1219,-4.125,-4.133,-4.1373,-4.1433,-4.1517,-4.1533,-4.1587,-4.1626,-4.1625,-4.1622,-4.163,-4.1628,-4.1576,-4.1656,-4.1656,-4.1656,-4.1656,0,-4.0534,-4.0574,-4.0711,-4.0746,-4.0793,-4.0892,-4.0936,-4.1001,-4.1081,-4.113,-4.1212,-4.1256,-4.1366,-4.1423,-4.1489,-4.1544,-4.1563,-4.16,-4.1617,-4.1592,-4.1587,-4.1616,-4.1619,-4.1656,-4.1656,-4.1656,-4.1656,0,-4.0446,-4.054,-4.061,-4.0733,-4.0765,-4.0794,-4.0899,-4.0937,-4.1007,-4.1068,-4.1088,-4.1197,-4.1268,-4.136,-4.1459,-4.1504,-4.155,-4.1577,-4.152,-4.153,-4.1522,-4.1521,-4.1486,-4.1486,-4.1567,-4.1566,-4.1565,0,-4.0418,-4.0451,-4.0579,-4.0619,-4.0674,-4.0737,-4.0786,-4.0885,-4.0932,-4.1037,-4.1061,-4.114,-4.1207,-4.1317,-4.1404,-4.148,-4.1509,-4.1491,-4.152,-4.1494,-4.1507,-4.1503,-4.1506,-4.1483,-4.1481,-4.148,-4.148,0,-4.0357,-4.0402,-4.047,-4.0555,-4.0611,-4.0682,-4.0757,-4.0784,-4.0898,-4.0947,-4.1022,-4.1075,-4.1178,-4.1254,-4.1342,-4.14,-4.1458,-4.147,-4.1474,-4.1447,-4.1412,-4.143,-4.1498,-4.147,-4.1471,-4.1472,-4.1472,-4.1472,-4.0298,-4.0331,-4.0427,-4.05,-4.0567,-4.0635,-4.0677,-4.0753,-4.0818,-4.0911,-4.0966,-4.1038,-4.1128,-4.1253,-4.1308,-4.1366,-4.1388,-4.1393,-4.1394,-4.1393,-4.1384,-4.1405,-4.1382,-4.1383,-4.1383,-4.1384,-4.1384,0,-4.024,-4.0307,-4.0373,-4.0476,-4.0533,-4.0587,-4.0672,-4.0716,-4.0779,-4.0859,-4.0925,-4.1011,-4.1086,-4.118,-4.1261,-4.1288,-4.1317,-4.1306,-4.1304,-4.1316,-4.1361,-4.1349,-4.1282,-4.1282,-4.1282,-4.1282,-4.1282,-4.1282,-4.0216,-4.0276,-4.0333,-4.0427,-4.0493,-4.0567,-4.0611,-4.0673,-4.0738,-4.0831,-4.0894,-4.0956,-4.1041,-4.113,-4.12,-4.1226,-4.1251,-4.1231,-4.1264,-4.1304,-4.1313,-4.1321,-4.1311,-4.1236,-4.1236,-4.1215,-4.1215,-4.1215]}]]